EW4443 Weather Reports


time (UTC)temp
C
wind
direction
speed
KPH
gust
KPH
rain 1hr
cm
rain 24hr
cm
rain mn
cm
humidity
%
barometer
mb
20260509053333 29 203 0.0 3.2 0.00 0.00 0.00 22 1007.3
20260509053104 29 270 0.0 3.2 0.00 0.00 0.00 22 1006.9
20260509052333 29 248 0.0 0.0 0.00 0.00 0.00 22 1007.3
20260509051834 30 248 0.0 0.0 0.00 0.00 0.00 24 1007.3
20260509051332 30 270 0.0 0.0 0.00 0.00 0.00 24 1007.3
20260509050832 30 248 0.0 0.0 0.00 0.00 0.00 22 1007.3
20260509050333 30 270 0.0 0.0 0.00 0.00 0.00 20 1006.9
20260509045833 30 225 0.0 0.0 0.00 0.00 0.00 20 1007.3
20260509045333 30 225 0.0 3.2 0.00 0.00 0.00 20 1007.3
20260509044833 30 203 0.0 4.8 0.00 0.00 0.00 20 1007.3
20260509044334 31 225 0.0 6.4 0.00 0.00 0.00 20 1006.9
20260509043834 31 248 0.0 6.4 0.00 0.00 0.00 19 1006.9
20260509043334 31 180 0.0 4.8 0.00 0.00 0.00 19 1006.9
20260509042834 31 248 0.0 8.0 0.00 0.00 0.00 17 1006.9
20260509042332 31 248 0.0 8.0 0.00 0.00 0.00 17 1006.9
20260509041833 31 225 0.0 4.8 0.00 0.00 0.00 19 1006.9
20260509041603 31 225 0.0 4.8 0.00 0.00 0.00 19 1006.5
20260509040832 31 248 0.0 4.8 0.00 0.00 0.00 19 1006.5
20260509040334 31 180 0.0 4.8 0.00 0.00 0.00 17 1006.2
20260509035834 32 225 0.0 4.8 0.00 0.00 0.00 17 1006.2
20260509035333 32 225 0.0 4.8 0.00 0.00 0.00 17 1006.2
20260509035104 32 225 0.0 6.4 0.00 0.00 0.00 17 1006.2
20260509034334 32 203 0.0 6.4 0.00 0.00 0.00 17 1006.2
20260509034102 32 225 1.6 6.4 0.00 0.00 0.00 17 1006.2
20260509033332 32 248 0.0 4.8 0.00 0.00 0.00 17 1005.9
20260509032832 32 180 0.0 4.8 0.00 0.00 0.00 17 1006.2
20260509032603 32 225 0.0 1.6 0.00 0.00 0.00 19 1005.9
20260509031832 33 225 0.0 0.0 0.00 0.00 0.00 19 1005.9
20260509031605 33 248 0.0 1.6 0.00 0.00 0.00 17 1005.9
20260509030834 33 203 0.0 3.2 0.00 0.00 0.00 17 1005.9
20260509030333 33 203 0.0 3.2 0.00 0.00 0.00 17 1005.9
20260509030053 33 180 0.0 1.6 0.00 0.00 0.00 15 1005.5
20260509025314 34 158 0.0 3.2 0.00 0.00 0.00 15 1005.5
20260509024813 34 158 0.0 3.2 0.00 0.00 0.00 15 1005.5
20260509024314 34 158 0.0 3.2 0.00 0.00 0.00 15 1005.5
20260509023813 34 180 0.0 3.2 0.00 0.00 0.00 15 1005.5
20260509023314 34 293 0.0 3.2 0.00 0.00 0.00 13 1005.5
20260509022816 35 203 0.0 4.8 0.00 0.00 0.00 13 1005.5
20260509022314 35 315 1.6 6.4 0.00 0.00 0.00 13 1005.5
20260509021814 35 248 1.6 8.0 0.00 0.00 0.00 13 1005.2
20260509021314 35 270 0.0 8.0 0.00 0.00 0.00 13 1005.5
20260509020815 35 225 1.6 8.0 0.00 0.00 0.00 13 1005.2
20260509020312 35 270 1.6 8.0 0.00 0.00 0.00 13 1005.5
20260509015813 35 270 1.6 14.5 0.00 0.00 0.00 13 1005.2
20260509015313 35 270 1.6 14.5 0.00 0.00 0.00 12 1005.2
20260509014814 35 270 1.6 11.3 0.00 0.00 0.00 12 1005.2
20260509014314 35 270 1.6 16.1 0.00 0.00 0.00 12 1005.2
20260509013814 35 203 3.2 16.1 0.00 0.00 0.00 13 1005.2
20260509013545 36 248 1.6 12.9 0.00 0.00 0.00 12 1005.2
20260509012814 36 270 3.2 14.5 0.00 0.00 0.00 12 1005.2
20260509012314 36 293 1.6 14.5 0.00 0.00 0.00 13 1004.8
20260509011813 36 270 1.6 11.3 0.00 0.00 0.00 12 1005.2
20260509011312 36 270 3.2 11.3 0.00 0.00 0.00 13 1005.5
20260509011044 36 203 3.2 16.1 0.00 0.00 0.00 12 1005.2
20260509010313 36 248 1.6 16.1 0.00 0.00 0.00 12 1005.2
20260509005814 36 270 1.6 11.3 0.00 0.00 0.00 13 1005.2
20260509005313 36 270 3.2 11.3 0.00 0.00 0.00 12 1005.5
20260509004813 37 315 3.2 11.3 0.00 0.00 0.00 12 1005.2
20260509004313 37 158 1.6 9.7 0.00 0.00 0.00 12 1005.2
20260509003816 37 0 3.2 14.5 0.00 0.00 0.00 13 1005.5
20260509003812 37 270 1.6 12.9 0.00 0.00 0.00 13 1005.5
20260509002817 37 270 1.6 11.3 0.00 0.00 0.00 12 1005.5
20260509002812 37 293 3.2 14.5 0.00 0.00 0.00 12 1005.5
20260509001813 37 203 3.2 11.3 0.00 0.00 0.00 12 1005.5
20260509001313 37 338 1.6 12.9 0.00 0.00 0.00 12 1005.5
20260509000813 37 45 3.2 12.9 0.00 0.00 0.00 12 1005.9
20260509000313 37 225 3.2 16.1 0.00 0.00 0.00 12 1005.5
20260508235813 37 270 3.2 16.1 0.00 0.00 0.00 12 1005.9
20260508235312 37 293 1.6 12.9 0.00 0.00 0.00 12 1005.5
20260508234812 38 180 1.6 14.5 0.00 0.00 0.00 12 1005.9
20260508234311 38 248 3.2 17.7 0.00 0.00 0.00 12 1005.9
20260508233811 38 113 3.2 17.7 0.00 0.00 0.00 12 1005.9
20260508233312 38 270 3.2 14.5 0.00 0.00 0.00 12 1005.9
20260508232813 38 315 3.2 14.5 0.00 0.00 0.00 12 1005.9
20260508232313 38 225 3.2 12.9 0.00 0.00 0.00 12 1005.9
20260508231812 38 90 3.2 17.7 0.00 0.00 0.00 12 1005.9
20260508231312 37 68 3.2 17.7 0.00 0.00 0.00 12 1005.9
20260508231042 37 270 3.2 17.7 0.00 0.00 0.00 12 1006.2
20260508230311 37 23 4.8 17.7 0.00 0.00 0.00 12 1005.9
20260508225812 37 23 3.2 12.9 0.00 0.00 0.00 12 1005.9
20260508225311 37 203 3.2 14.5 0.00 0.00 0.00 12 1006.2
20260508224812 37 225 4.8 14.5 0.00 0.00 0.00 12 1006.2
20260508224312 37 270 3.2 14.5 0.00 0.00 0.00 12 1006.2
20260508223811 37 180 3.2 20.9 0.00 0.00 0.00 12 1006.2
20260508223312 37 225 3.2 20.9 0.00 0.00 0.00 13 1006.2
20260508222811 37 293 3.2 14.5 0.00 0.00 0.00 12 1006.5
20260508222310 37 203 3.2 16.1 0.00 0.00 0.00 12 1006.5
20260508222042 37 203 3.2 16.1 0.00 0.00 0.00 12 1006.5
20260508221311 37 0 1.6 12.9 0.00 0.00 0.00 15 1006.9
20260508220810 37 113 1.6 12.9 0.00 0.00 0.00 15 1006.9
20260508220543 37 270 1.6 11.3 0.00 0.00 0.00 15 1006.9
20260508215811 37 248 1.6 11.3 0.00 0.00 0.00 13 1006.9
20260508215311 36 248 3.2 12.9 0.00 0.00 0.00 15 1007.3
20260508214811 36 338 3.2 12.9 0.00 0.00 0.00 15 1007.3
20260508214542 36 23 1.6 11.3 0.00 0.00 0.00 15 1007.6
20260508213811 36 248 1.6 9.7 0.00 0.00 0.00 15 1007.6
20260508213310 36 158 3.2 11.3 0.00 0.00 0.00 15 1007.6
20260508212809 36 180 3.2 17.7 0.00 0.00 0.00 15 1007.6
20260508212309 36 225 3.2 17.7 0.00 0.00 0.00 15 1007.6
20260508211810 36 338 1.6 11.3 0.00 0.00 0.00 17 1008.0
20260508211312 36 270 3.2 14.5 0.00 0.00 0.00 15 1008.3
20260508210811 36 248 3.2 14.5 0.00 0.00 0.00 15 1008.3
20260508210311 36 225 1.6 11.3 0.00 0.00 0.00 15 1008.3
20260508205810 36 270 1.6 9.7 0.00 0.00 0.00 15 1008.3
20260508205309 35 338 1.6 9.7 0.00 0.00 0.00 15 1008.3
20260508204810 35 225 1.6 9.7 0.00 0.00 0.00 15 1008.7
20260508204309 35 293 1.6 9.7 0.00 0.00 0.00 15 1008.7
20260508203809 35 225 1.6 9.7 0.00 0.00 0.00 15 1008.7
20260508203309 35 270 1.6 9.7 0.00 0.00 0.00 15 1008.7
20260508202810 35 0 1.6 8.0 0.00 0.00 0.00 15 1009.0
20260508202310 35 180 1.6 8.0 0.00 0.00 0.00 15 1008.7
20260508201810 35 180 0.0 11.3 0.00 0.00 0.00 17 1008.7
20260508201309 35 203 1.6 11.3 0.00 0.00 0.00 15 1008.7
20260508200809 35 225 1.6 8.0 0.00 0.00 0.00 15 1009.0
20260508200309 35 270 0.0 6.4 0.00 0.00 0.00 17 1009.0
20260508195809 35 68 0.0 8.0 0.00 0.00 0.00 17 1009.3
20260508195308 35 0 1.6 9.7 0.00 0.00 0.00 17 1009.3
20260508195040 34 270 1.6 9.7 0.00 0.00 0.00 17 1009.7
20260508194310 34 225 1.6 9.7 0.00 0.00 0.00 17 1009.3
20260508193810 34 270 1.6 9.7 0.00 0.00 0.00 17 1009.7
20260508193310 33 338 0.0 9.7 0.00 0.00 0.00 17 1009.7
20260508192809 33 225 1.6 9.7 0.00 0.00 0.00 17 1009.7
20260508192541 33 270 0.0 9.7 0.00 0.00 0.00 17 1010.0
20260508191813 33 225 0.0 4.8 0.00 0.00 0.00 17 1010.0
20260508191808 33 248 1.6 9.7 0.00 0.00 0.00 17 1010.0
20260508190808 33 158 0.0 4.8 0.00 0.00 0.00 15 1010.0
20260508190310 33 135 0.0 9.7 0.00 0.00 0.00 17 1010.0
20260508185809 33 225 1.6 9.7 0.00 0.00 0.00 17 1010.5
20260508185310 33 203 1.6 9.7 0.00 0.00 0.00 17 1010.0
20260508184809 33 203 1.6 9.7 0.00 0.00 0.00 19 1010.5
20260508184309 32 45 0.0 4.8 0.00 0.00 0.00 19 1010.0
20260508183809 32 113 0.0 6.4 0.00 0.00 0.00 19 1010.5
20260508183307 32 248 0.0 6.4 0.00 0.00 0.00 19 1010.5
20260508183039 32 23 0.0 8.0 0.00 0.00 0.00 17 1010.5
20260508182539 32 203 1.6 8.0 0.00 0.00 0.00 17 1010.5
20260508181808 32 270 0.0 6.4 0.00 0.00 0.00 19 1010.8
20260508181521 32 248 0.0 6.4 0.00 0.00 0.00 19 1010.8
20260508180751 32 248 1.6 6.4 0.00 0.00 0.00 19 1011.1
20260508180250 32 248 1.6 8.0 0.00 0.00 0.00 20 1010.8
20260508175751 31 68 1.6 8.0 0.00 0.00 0.00 19 1011.1
20260508175250 31 203 0.0 4.8 0.00 0.00 0.00 20 1011.1
20260508174749 31 180 0.0 6.4 0.00 0.00 0.00 19 1011.1
20260508174249 31 203 1.6 6.4 0.00 0.00 0.00 20 1011.1
20260508174019 31 203 0.0 4.8 0.00 0.00 0.00 20 1011.1
20260508173521 31 180 0.0 4.8 0.00 0.00 0.00 20 1011.5
20260508172750 31 113 0.0 6.4 0.00 0.00 0.00 20 1011.5
20260508172250 30 158 1.6 6.4 0.00 0.00 0.00 20 1011.1
20260508171750 30 203 1.6 6.4 0.00 0.00 0.00 22 1011.5
20260508171522 30 248 1.6 6.4 0.00 0.00 0.00 20 1011.5
20260508170750 30 180 0.0 6.4 0.00 0.00 0.00 22 1011.5
20260508170249 30 158 0.0 6.4 0.00 0.00 0.00 22 1011.5
20260508165749 30 68 0.0 9.7 0.00 0.00 0.00 22 1011.5
20260508165249 30 180 1.6 9.7 0.00 0.00 0.00 20 1011.5
20260508164749 30 270 1.6 8.0 0.00 0.00 0.00 22 1011.8
20260508164250 29 135 1.6 6.4 0.00 0.00 0.00 22 1011.8
20260508163750 29 158 0.0 4.8 0.00 0.00 0.00 22 1011.8
20260508163250 29 203 0.0 4.8 0.00 0.00 0.00 22 1011.8
20260508162750 29 68 1.6 6.4 0.00 0.00 0.00 22 1011.8
20260508162250 28 180 0.0 8.0 0.00 0.00 0.00 22 1011.8
20260508161749 28 270 1.6 8.0 0.00 0.00 0.00 24 1011.8
20260508161249 28 180 0.0 6.4 0.00 0.00 0.00 24 1011.8
20260508160746 28 180 1.6 6.4 0.00 0.00 0.00 24 1011.8
20260508160231 28 225 0.0 9.7 0.00 0.00 0.00 24 1011.8
20260508155730 28 180 1.6 9.7 0.00 0.00 0.00 24 1011.5
20260508155231 28 180 1.6 6.4 0.00 0.00 0.00 24 1011.8
20260508154731 27 113 0.0 6.4 0.00 0.00 0.00 25 1011.8
20260508154236 27 270 0.0 6.4 0.00 0.00 0.00 25 1011.5
20260508154232 27 68 0.0 3.2 0.00 0.00 0.00 25 1011.5
20260508153231 27 158 0.0 6.4 0.00 0.00 0.00 25 1011.8
20260508152730 26 158 0.0 1.6 0.00 0.00 0.00 25 1011.8
20260508152230 26 135 0.0 3.2 0.00 0.00 0.00 25 1011.8
20260508151730 26 180 0.0 4.8 0.00 0.00 0.00 25 1011.8
20260508151230 26 293 0.0 4.8 0.00 0.00 0.00 25 1011.8
20260508150731 26 0 0.0 3.2 0.00 0.00 0.00 27 1012.1
20260508150231 26 0 0.0 3.2 0.00 0.00 0.00 27 1011.8
20260508145731 25 45 0.0 1.6 0.00 0.00 0.00 27 1011.8
20260508145232 25 338 0.0 3.2 0.00 0.00 0.00 27 1011.8
20260508144731 24 68 0.0 3.2 0.00 0.00 0.00 27 1011.8
20260508144230 24 248 0.0 1.6 0.00 0.00 0.00 29 1011.8
20260508144003 23 225 0.0 3.2 0.00 0.00 0.00 29 1011.5
20260508143230 23 158 0.0 3.2 0.00 0.00 0.00 30 1011.8
20260508143001 23 113 0.0 3.2 0.00 0.00 0.00 30 1011.8
20260508142213 23 23 0.0 3.2 0.00 0.00 0.00 31 1011.5
20260508141712 22 90 0.0 3.2 0.00 0.00 0.00 31 1011.8
20260508141213 22 203 0.0 3.2 0.00 0.00 0.00 31 1011.5
20260508140715 22 270 0.0 3.2 0.00 0.00 0.00 30 1011.5
20260508140212 21 225 0.0 4.8 0.00 0.00 0.00 30 1011.5
20260508135706 21 23 0.0 4.8 0.00 0.00 0.00 32 1011.5
20260508135423 21 338 0.0 1.6 0.00 0.00 0.00 31 1011.1
20260508134653 21 135 0.0 1.6 0.00 0.00 0.00 31 1011.1
20260508134152 21 293 0.0 1.6 0.00 0.00 0.00 31 1011.1
20260508133652 20 248 0.0 1.6 0.00 0.00 0.00 32 1011.1
20260508133141 20 248 0.0 1.6 0.00 0.00 0.00 32 1011.1
20260508132650 20 338 0.0 0.0 0.00 0.00 0.00 31 1010.8
20260508132014 20 270 0.0 1.6 0.00 0.00 0.00 32 1011.1
20260508131507 20 45 0.0 4.8 0.00 0.00 0.00 32 1010.8
20260508131200 20 270 0.0 4.8 0.00 0.00 0.00 32 1010.5
20260508130405 20 203 0.0 1.6 0.00 0.00 0.00 32 1010.8
20260508125834 20 315 0.0 1.6 0.00 0.00 0.00 32 1010.8
20260508125212 20 23 0.0 0.0 0.00 0.00 0.00 32 1010.5
20260508124648 -17 270 0.0 1.6 0.00 0.00 0.00 1010.5
20260508124355 20 45 0.0 1.6 0.00 0.00 0.00 31 1010.5
20260508123319 20 338 0.0 1.6 0.00 0.00 0.00 32 1010.5
20260508122819 20 0 0.0 3.2 0.00 0.00 0.00 32 1010.5
20260508122130 20 248 0.0 4.8 0.00 0.00 0.00 32 1010.5
20260508122035 20 23 0.0 1.6 0.00 0.00 0.00 32 1010.0
20260508121020 20 293 0.0 0.0 0.00 0.00 0.00 32 1010.0
20260508120350 20 338 0.0 1.6 0.00 0.00 0.00 32 1010.0
20260508115844 20 315 0.0 1.6 0.00 0.00 0.00 32 1010.0
20260508115315 20 315 0.0 0.0 0.00 0.00 0.00 32 1010.0
20260508114804 20 270 0.0 1.6 0.00 0.00 0.00 32 1010.0
20260508114311 20 68 0.0 1.6 0.00 0.00 0.00 32 1010.0
20260508113747 20 113 0.0 1.6 0.00 0.00 0.00 32 1010.0
20260508113233 20 45 0.0 0.0 0.00 0.00 0.00 32 1009.7
20260508113229 20 68 0.0 1.6 0.00 0.00 0.00 32 1010.0
20260508112444 21 68 0.0 1.6 0.00 0.00 0.00 32 1009.7
20260508112359 20 68 0.0 0.0 0.00 0.00 0.00 32 1010.0
20260508111338 21 45 0.0 1.6 0.00 0.00 0.00 32 1009.7
20260508110833 21 90 0.0 0.0 0.00 0.00 0.00 31 1009.7
20260508110005 21 68 0.0 0.0 0.00 0.00 0.00 31 1009.7
20260508105458 21 45 0.0 0.0 0.00 0.00 0.00 31 1009.7
20260508105006 21 113 0.0 0.0 0.00 0.00 0.00 32 1009.7
20260508104444 21 203 0.0 0.0 0.00 0.00 0.00 31 1009.7
20260508104434 21 23 0.0 0.0 0.00 0.00 0.00 32 1009.7
20260508103402 21 248 0.0 0.0 0.00 0.00 0.00 31 1009.7
20260508102851 21 270 0.0 0.0 0.00 0.00 0.00 35 1009.7
20260508102358 21 315 0.0 1.6 0.00 0.00 0.00 31 1009.7
20260508101843 21 270 0.0 1.6 0.00 0.00 0.00 31 1009.7
20260508101331 21 45 0.0 0.0 0.00 0.00 0.00 34 1009.7
20260508101110 21 23 0.0 0.0 0.00 0.00 0.00 32 1009.7
20260508100838 21 23 0.0 0.0 0.00 0.00 0.00 32 1009.7
20260508100335 21 23 0.0 0.0 0.00 0.00 0.00 31 1009.7
20260508100059 21 338 0.0 0.0 0.00 0.00 0.00 30 1009.3
20260508095320 21 315 0.0 0.0 0.00 0.00 0.00 30 1009.3
20260508094642 21 0 0.0 3.2 0.00 0.00 0.00 30 1009.3
20260508094124 21 23 0.0 3.2 0.00 0.00 0.00 30 1009.3
20260508093604 21 45 0.0 1.6 0.00 0.00 0.00 30 1009.3
20260508093050 22 45 0.0 3.2 0.00 0.00 0.00 30 1009.3
20260508092545 22 113 0.0 3.2 0.00 0.00 0.00 30 1009.3
20260508092044 22 135 0.0 3.2 0.00 0.00 0.00 27 1009.7
20260508091547 22 113 0.0 3.2 0.00 0.00 0.00 27 1009.3
20260508091039 22 135 0.0 3.2 0.00 0.00 0.00 27 1009.3
20260508090532 22 338 0.0 6.4 0.00 0.00 0.00 27 1009.7
20260508090017 22 23 1.6 6.4 0.00 0.00 0.00 25 1009.7
20260508085814 22 90 3.2 4.8 0.00 0.00 0.00 25 1009.7
20260508084953 22 45 1.6 4.8 0.00 0.00 0.00 25 1009.7
20260508084444 22 68 1.6 4.8 0.00 0.00 0.00 25 1009.7
20260508083943 22 68 1.6 4.8 0.00 0.00 0.00 25 1009.7
20260508083433 22 0 0.0 3.2 0.00 0.00 0.00 27 1009.7
20260508082905 22 90 0.0 3.2 0.00 0.00 0.00 27 1009.7
20260508082405 22 45 0.0 1.6 0.00 0.00 0.00 29 1009.7
20260508081859 23 23 0.0 1.6 0.00 0.00 0.00 29 1009.7
20260508081352 23 45 0.0 0.0 0.00 0.00 0.00 27 1009.7
20260508080815 23 45 0.0 0.0 0.00 0.00 0.00 25 1009.3
20260508080309 23 338 0.0 0.0 0.00 0.00 0.00 25 1009.3
20260508075801 23 0 0.0 0.0 0.00 0.00 0.00 25 1009.3
20260508075241 23 0 0.0 0.0 0.00 0.00 0.00 25 1009.0
20260508074711 23 0 0.0 0.0 0.00 0.00 0.00 24 1009.7
20260508074513 23 23 0.0 0.0 0.00 0.00 0.00 24 1009.3
20260508073646 23 23 0.0 0.0 0.00 0.00 0.00 24 1009.3
20260508073142 23 45 0.0 0.0 0.00 0.00 0.00 22 1009.3
20260508072631 23 270 0.0 1.6 0.00 0.00 0.00 22 1009.3
20260508072105 23 315 0.0 4.8 0.00 0.00 0.00 22 1009.7
20260508071538 23 180 1.6 6.4 0.00 0.00 0.00 22 1009.7
20260508071319 23 158 1.6 6.4 0.00 0.00 0.00 25 1009.3
20260508070525 23 338 0.0 0.0 0.00 0.00 0.00 25 1009.3
20260508070010 23 338 0.0 0.0 0.00 0.00 0.00 25 1009.3
20260508065736 24 338 0.0 0.0 0.00 0.00 0.00 25 1009.0
20260508064957 24 338 0.0 0.0 0.00 0.00 0.00 25 1009.0
20260508064449 24 0 0.0 0.0 0.00 0.00 0.00 25 1009.3
20260508063724 24 0 0.0 0.0 0.00 0.00 0.00 25 1009.3
20260508063219 24 0 0.0 0.0 0.00 0.00 0.00 25 1009.3
20260508062712 24 0 0.0 3.2 0.00 0.00 0.00 25 1009.0
20260508062201 25 0 0.0 3.2 0.00 0.00 0.00 24 1009.3
20260508061707 25 338 0.0 0.0 0.00 0.00 0.00 24 1009.0
20260508061153 25 338 0.0 0.0 0.00 0.00 0.00 24 1009.3
20260508060914 25 315 0.0 0.0 0.00 0.00 0.00 24 1009.0
20260508060123 25 315 0.0 0.0 0.00 0.00 0.00 22 1009.0
20260508055556 25 315 0.0 0.0 0.00 0.00 0.00 22 1009.0
20260508055004 25 248 0.0 0.0 0.00 0.00 0.00 22 1009.3
20260508054734 25 225 0.0 0.0 0.00 0.00 0.00 22 1009.3
20260508053913 26 225 0.0 0.0 0.00 0.00 0.00 22 1009.3